CRC

Crooked River Challenge - Loft Fly

Station: Inventory - T Race

Distance: 0.1 Miles    

Release: 14-May-2019 06:45

Weather Release:    Arrival:

Wind at Release:     Wind at Arrival:

Temp at Release: °    Temp at Arrival: °

Lofts: 148

Birds: 722

Clocked: 642

Good Luck to Everyone!
Drops Pos Breeder Pigeon Name Color Sex Ent Arrival Speed To Win Eligible OpBOpC
1 Rueter Family Loft - OR 5323-AU19-CORP BB H 1 09:33:24.74 1.045 00:00:00 Yes
1 Pl Abasolo Famloft - IL 0513-AU19-LCC BB H 1 09:33:24.78 1.045 00:00:00 Yes
1 Lin Family Loft - GA 2044-AU19-LIN 林-lin1158 X 8072 BB H 1 09:33:25.84 1.045 00:00:00 Yes
1 Sunshine Loft 2 - SC 0131-AU19-PAK 558/Sr BB H 1 09:33:28.84 1.045 00:00:00 Yes
5 Sierra Ranch - CA 0915-AU19-SIER BB C 1 09:33:30.43 1.044 00:00:10 Yes
6 Lamonta - OR 2507-AU19-FOYS BB C 1 09:33:42.51 1.043 00:00:19 Yes
6 Lin Family Loft - GA 2047-AU19-LIN 林-lin1 X lin1109 BCWF H 2 09:33:43.55 1.043 00:00:19 Yes
6 Hi-Chi Loft - CA 1425-AU19-WSJ BB H 1 09:33:46.54 1.043 00:00:19 Yes
6 A F L - GA 0038-IF19-AFL BBP C 1 09:33:47.47 1.043 00:00:19 Yes
10 Lin Family Loft - GA 2046-AU19-LIN 林-lin1 X lin1109 BCWF H 3 09:34:00.72 1.041 00:00:39 Yes
10 A H C Loft - FL 0420-IF19-BQC 🐉1858200x1858145🐉 BB H 1 09:34:04.58 1.041 00:00:39 Yes
12 Genesis Syndicate Loft - AZ 0824-AU19-GEN BC H 1 09:34:09.24 1.040 00:00:49 Yes
12 Red Ass Ranch - TX 0422-AU19-RAR BBWF H 1 09:34:09.90 1.040 00:00:49 Yes
12 Wolf Den & Family Loft - IL 0023-AU19-FAM BB H 1 09:34:11.85 1.040 00:00:49 Yes
12 Dennis Watson - OR 4118-AU19-LKC BBPD C 1 09:34:13.71 1.040 00:00:49 Yes
12 Fanway Family Loft - NS 19115-CU19-CNRP BLK C 1 09:34:16.39 1.040 00:00:49 Yes
12 Shi Loft - PA 7037-IF19-ERIE BBWF H 1 09:34:16.77 1.040 00:00:49 Yes
12 Baldwin & Tilson - NC 9091-AU19-TENT BBWF C 1 09:34:17.80 1.040 00:00:49 Yes
12 Billy & Ray - CO 19503-AU19-PUEB BB H 1 09:34:18.22 1.040 00:00:49 Yes
20 Jeff Earthman - NV 1917-AU19-JEDD 1158-833 BB H 1 09:34:19.73 1.039 00:00:58 Yes
20 Fanway Family Loft - NS 19112-CU19-CNRP BC H 2 09:34:21.01 1.039 00:00:58 Yes
20 Fall Creek Ranch - OR 8110-AU19-FOYS BBSP H 1 09:34:22.97 1.039 00:00:58 Yes
20 Crazy Als Lofts - CO 5555-AU19-CRAZ DC H 1 09:34:25.48 1.039 00:00:58 Yes
24 Da-Dong - WI 1645-AU19-RAC BB H 1 09:34:29.20 1.038 00:01:08 Yes
24 Lin Family Loft - GA 2054-AU19-LIN 林-lin43 X lin1109 BBWF H 4 09:34:31.05 1.038 00:01:08 Yes
24 Cloux Loft - CO 9719-AU19-FH SIL C 1 09:34:32.43 1.038 00:01:08 Yes
24 Crazy Als Lofts - CO 5621-AU19-CRAZ BB C 2 09:34:33.09 1.038 00:01:08 Yes
24 Jimmy Zheng Loft - MS 0820-AU19-JZLT BCWF H 1 09:34:34.15 1.038 00:01:08 Yes
24 Wolf Den & Family Loft - IL 0055-AU19-WOLF BC H 2 09:34:35.78 1.038 00:01:08 Yes
24 Cortes Family Loft - AZ 1914-AU19-CORT Arizona Wildcat 2 BB H 1 09:34:35.80 1.038 00:01:08 Yes
24 ** J-Ireneo Loft ** - CA 0415-AU19-JIR DC H 1 09:34:37.08 1.038 00:01:08 Yes
24 Tex-Mex Loft - TX 0109-AU19-TXMX Mississippi Queen BB H 1 09:34:38.10 1.038 00:01:08 Yes
24 Highland Loft - NY 9138-AU19-DZ BC H 1 09:34:38.12 1.038 00:01:08 Yes
24 Yendez Loft - TX 0315-AU19-YEND BB H 1 09:34:38.15 1.038 00:01:08 Yes
35 Greek Connection - SC 1238-AU19-GRK BB H 1 09:34:38.35 1.037 00:01:18 Yes
35 A F L - GA 0130-IF19-AFL BBWF C 2 09:34:38.63 1.037 00:01:18 Yes
35 Tian Loft - FL 15670-AU19-ARPU BB H 1 09:34:39.66 1.037 00:01:18 Yes
35 Kessler Family Loft - OR 0023-AU19-NRK Hwy 150 BB H 1 09:34:40.29 1.037 00:01:18 Yes
39 P N W Challenge - ID 0511-AU19-IDA BB H 1 09:34:50.23 1.036 00:01:28 Yes
39 Andy Skwiat - IN 0044-AU19-ANDY BBWF C 1 09:34:51.46 1.036 00:01:28 Yes
39 Peach Classic - GA 19030-AU19-PCL BB C 1 09:34:52.71 1.036 00:01:28 Yes
39 Filipino-American Pigeon Fanciers Alliance - IL 0153-AU19-FAMP BB H 1 09:34:54.24 1.036 00:01:28 Yes
39 Eastern Pearl Loft - VA 0531-AU19-EPL 🈚️量531=298x006 BC H 1 09:34:54.81 1.036 00:01:28 Yes
39 Bryan Maier - PA 0344-IF19-MAIE BBSP H 1 09:34:55.10 1.036 00:01:28 Yes
39 Jimmy Zheng Loft - MS 0824-AU19-JZLT BB H 2 09:34:56.30 1.036 00:01:28 Yes
39 Peters - GA 0008-AU19-PETE PETERS -2 BBSP C 1 09:34:57.33 1.036 00:01:28 Yes
47 Kolvenbag & Son - PA 1348-IF19-KOLV BC H 1 09:35:00.09 1.035 00:01:38 Yes
47 Amer Loft - GA 0013-IF19-AFL BB H 1 09:35:00.83 1.035 00:01:38 Yes
47 ** J-Ireneo Loft ** - CA 0416-AU19-JIR DCSP H 2 09:35:02.30 1.035 00:01:38 Yes
47 Jeff Earthman - NV 1918-AU19-JEDD 6260-14 BB H 2 09:35:02.67 1.035 00:01:38 Yes
51 Tian Loft - FL 15677-AU19-ARPU BB C 2 09:35:09.29 1.034 00:01:48 Yes
51 H.E.R__aviary - NC 9121-AU19-CV BB H 1 09:35:13.45 1.034 00:01:48 Yes
51 Poorhouse Road Loft - VA 29715-AU19-ARPU G6 BBWF C 1 09:35:16.95 1.034 00:01:48 Yes
51 Slick Hills Loft - UT 39408-AU19-ARPU BCWF H 1 09:35:17.04 1.034 00:01:48 Yes
55 Irishsyndicatelofts - AZ 0731-IF19-IRIS BB H 1 09:35:18.37 1.033 00:01:57 Yes
55 S & J Platt - OR 18210-AU19-PLAT BB C 1 09:35:19.30 1.033 00:01:57 Yes
55 Tian Loft - FL 15656-AU19-ARPU BBWF H 3 09:35:19.68 1.033 00:01:57 Yes
55 Bayside Loft - NY 56516-IF19-NEIL BCWF C 1 09:35:21.00 1.033 00:01:57 Yes
55 Emmalyn & Carelyn Loft - CA 0011-AU19-CEYX BBWF H 1 09:35:21.92 1.033 00:01:57 Yes
55 Portland Loft - OR 0502-AU19-JEDD BB C 1 09:35:24.21 1.033 00:01:57 Yes
61 Morningside Racing Loft - TX 1020-AU19-MSRL RRWF H 1 09:35:28.30 1.032 00:02:07 Yes
61 Fall Creek Ranch - OR 8115-AU19-FOYS BC H 2 09:35:30.82 1.032 00:02:07 Yes
61 A F L - GA 0148-IF19-AFL BBWF C 3 09:35:33.97 1.032 00:02:07 Yes
61 Columba Loft - GA 9293-AU19-LYNC BC H 1 09:35:35.66 1.032 00:02:07 Yes
61 Marengo Creek Farms - AL 3307-AU19-MCF BB H 1 09:35:35.75 1.032 00:02:07 Yes
66 Khang Lofts - MN 0007-AU19-KHAN BBWF H 1 09:35:37.91 1.031 00:02:17 Yes
66 Columba Loft - GA 9174-AU19-LYNC BB C 2 09:35:39.79 1.031 00:02:17 Yes
66 Brooklyn Loft - NY 1494-IF19-FVC BBSP H 1 09:35:42.23 1.031 00:02:17 Yes
66 Irishsyndicatelofts - AZ 0414-IF19-IRIS BC C 3 09:35:45.21 1.031 00:02:17 Yes
66 Irishsyndicatelofts - AZ 0725-IF19-IRIS BBWF H 2 09:35:45.86 1.031 00:02:17 Yes
71 Kolvenbag & Son - PA 1330-IF19-KOLV BC H 2 09:35:48.11 1.030 00:02:27 Yes
71 Rueter Family Loft - OR 5314-AU19-CORP BB H 2 09:35:48.29 1.030 00:02:27 Yes
71 Kolvenbag & Son - PA 1335-IF19-KOLV DC C 3 09:35:56.03 1.030 00:02:27 Yes
74 Filipino-American Pigeon Fanciers Alliance - IL 0145-AU19-FAMP BB H 2 09:36:00.70 1.029 00:02:37 Yes
75 Me Fui ! Vega Loft - FL 0062-AU19-VEGA CHOC H 1 09:36:09.40 1.028 00:02:47 Yes
75 Horse Heaven Hills - OR 25301-AU19-AA BC H 1 09:36:11.21 1.028 00:02:47 Yes
75 Sunshine Loft 2 - SC 0172-AU19-PAK 6511/6520 BBWF C 2 09:36:11.30 1.028 00:02:47 Yes
75 Drama Queen Loft - TX 0911-AU19-GCI RD H 1 09:36:13.63 1.028 00:02:47 Yes
79 Morningside Racing Loft - TX 1031-AU19-MSRL 7013X10169 STWF H 2 09:36:20.87 1.027 00:02:57 Yes
79 Highland Loft - NY 9132-AU19-DZ BC C 2 09:36:22.26 1.027 00:02:57 Yes
79 Great Wall - VA 0834-AU19-JIMM BC H 1 09:36:23.37 1.027 00:02:57 Yes
79 Cloux Loft - CO 9703-AU19-FH BB H 2 09:36:24.41 1.027 00:02:57 Yes
83 Balikbayan Express - WA 0007-AU19-CEYX BBSP H 1 09:36:28.60 1.026 00:03:07 Yes
83 Portland Loft - OR 0510-AU19-JEDD BB C 2 09:36:32.91 1.026 00:03:07 Yes
83 Cherokee Loft - MI 0538-AU19-CHER BC H 1 09:36:33.01 1.026 00:03:07 Yes
86 Great Wall - VA 13013-AU19-TONY BB H 2 09:36:37.51 1.025 00:03:17 Yes
86 Anshutz Family Lofts - WA 4002-AU19-LKC BC H 1 09:36:45.38 1.025 00:03:17 Yes
88 Smith R.P.L. - UT 4520-AU19-SMIT BB H 1 09:36:48.97 1.024 00:03:27 Yes
89 Vaccaro Heavenly Loft - ON 8018-CU19-CU SIL C 1 09:36:57.66 1.023 00:03:37 Yes
89 Omelio Perez - NM 54009-AU19-ARPU BB H 1 09:37:06.09 1.023 00:03:37 Yes
91 Eastern Pearl Loft - VA 0523-AU19-EPL 🈚️量523=042x240 BBWF C 2 09:37:11.34 1.022 00:03:47 Yes
91 Dennis Watson - OR 4125-AU19-LKC BB H 2 09:37:15.09 1.022 00:03:47 Yes
91 Horse Heaven Hills - OR 25309-AU19-AA BB H 2 09:37:17.18 1.022 00:03:47 Yes
94 Byers/Perrin - OR 29006-AU19-ARPU BC H 1 09:37:19.69 1.021 00:03:58 Yes
94 Zhengloft - FL 19102-IF19-ZHEN BB C 1 09:37:23.22 1.021 00:03:58 Yes
94 Skyraider - WA 9258-AU19-TCW Ludo S94 line BC H 1 09:37:24.27 1.021 00:03:58 Yes
97 Jimmy Zheng Loft - MS 0838-AU19-JZLT BCT H 3 09:37:29.36 1.020 00:04:08 Yes
97 Me Fui ! Vega Loft - FL 0003-AU19-VEGA BB C 2 09:37:29.84 1.020 00:04:08 Yes
97 Kessler Family Loft - OR 0022-AU19-NRK Spun son BB H 2 09:37:31.89 1.020 00:04:08 Yes
97 Duane Gragg - CA 0936-AU19-KEY BC H 1 09:37:36.01 1.020 00:04:08 Yes

There are 660 bird records

Note: These Race Results are unofficial and subject to change until verified by the Race Committee and declared final.